This is the latest recevied weather packets stored in our database for station/object W8CEN. If no packets are shown the sender has not sent any weather packets the latest 1 day(s).
| Time | Temp. | Humidity | Pressure | Rain* | Wind** | Luminosity | Snow |
|---|---|---|---|---|---|---|---|
| 1778049208 | 7.22° C | 98% | 987.8 hPa | 0 mm | - | 0 W/m² | - |
| 1778048906 | 7.22° C | 98% | 988 hPa | 0 mm | - | 0 W/m² | - |
| 1778047088 | 7.78° C | 97% | 987.7 hPa | 0 mm | - | 0 W/m² | - |
| 1778046786 | 7.78° C | 98% | 987.5 hPa | 0 mm | - | 0 W/m² | - |
| 1778045875 | 7.78° C | 98% | 987.9 hPa | 1.27 mm | - | 0 W/m² | - |
| 1778045272 | 8.33° C | 98% | 988.2 hPa | 1.78 mm | - | 0 W/m² | - |
| 1778044971 | 8.33° C | 98% | 988 hPa | 1.78 mm | - | 0 W/m² | - |
| 1778043759 | 8.89° C | 98% | 987.7 hPa | 1.78 mm | - | 0 W/m² | - |
| 1778043455 | 8.89° C | 98% | 987.8 hPa | 1.78 mm | - | 0 W/m² | - |
| 1778043152 | 8.89° C | 98% | 987.9 hPa | 1.27 mm | - | 0 W/m² | - |
| 1778042547 | 8.89° C | 98% | 987.8 hPa | 0 mm | - | 0 W/m² | - |
| 1778042244 | 8.89° C | 98% | 987.6 hPa | 1.78 mm | - | 0 W/m² | - |
| 1778041640 | 8.89° C | 98% | 987.5 hPa | 0 mm | - | 0 W/m² | - |
| 1778040733 | 8.89° C | 98% | 987.7 hPa | 0 mm | - | 0 W/m² | - |
| 1778040127 | 8.89° C | 98% | 987.7 hPa | 0 mm | - | 0 W/m² | - |
| 1778039824 | 8.89° C | 98% | 987.4 hPa | 0 mm | - | 0 W/m² | - |
| 1778039521 | 8.89° C | 98% | 987.8 hPa | 0 mm | - | 0 W/m² | - |
| 1778039217 | 8.89° C | 98% | 987.6 hPa | 0 mm | - | 0 W/m² | - |
| 1778038915 | 8.89° C | 98% | 987.6 hPa | 1.78 mm | - | 0 W/m² | - |
| 1778038309 | 8.89° C | 98% | 987.4 hPa | 0 mm | - | 0 W/m² | - |
| 1778038006 | 8.89° C | 98% | 987.6 hPa | 0 mm | - | 0 W/m² | - |
| 1778037703 | 8.89° C | 98% | 987.8 hPa | 1.27 mm | - | 0 W/m² | - |
| 1778037400 | 8.89° C | 98% | 987.9 hPa | 1.27 mm | - | 0 W/m² | - |
| 1778037096 | 8.89° C | 98% | 987.9 hPa | 1.78 mm | - | 0 W/m² | - |
| 1778036796 | 8.89° C | 98% | 988 hPa | 1.78 mm | - | 0 W/m² | - |
* Rain latest hour (hover to see other rain measurements)
** Current wind speed in m/s (hover to see current wind gust speed)